Regional Weather Roundup
Issued by NWS

Home | Current Version | Previous Version | Text Only | Print | Product List | Glossary On
Versions: 1 2 3 4 5 6 7 8 9 10 11 12 13 14 15 16 17 18 19 20 21 22 23 24 25 26 27 28 29 30 31 32 33 34 35 36 37 38 39 40 41 42 43 44 45 46 47 48 49 50
000
ASUS43 KMKX 030200
RWRWI

WISCONSIN REGIONAL WEATHER ROUNDUP
NATIONAL WEATHER SERVICE MILWAUKEE/SULLIVAN WI
900 PM CDT TUE SEP 02 2014

NOTE: "FAIR" INDICATES FEW OR NO CLOUDS BELOW 12,000 FEET WITH NO
SIGNIFICANT WEATHER AND/OR OBSTRUCTIONS TO VISIBILITY.

WIZ001-002-006>008-014>016-023>028-030300-
NORTHWEST WISCONSIN

CITY           SKY/WX    TMP DP  RH WIND       PRES   REMARKS
SUPERIOR ARPT  CLEAR     57  54  90 CALM      29.82R
ASHLAND        CLEAR     57  54  89 SE5       29.87S
HAYWARD        CLEAR     58  56  93 CALM      29.87R
SIREN          CLEAR     65  52  62 S5        29.86R
RICE LAKE      CLEAR     62  55  78 CALM      29.89S
LADYSMITH      CLEAR     62  55  80 CALM      29.90S
EAU CLAIRE     NOT AVBL
MENOMONIE      PTCLDY    68  55  63 SW3       29.88S
NEW RICHMOND   PTCLDY    63  54  72 CALM      29.88S
OSCEOLA        PTCLDY    63  55  77 CALM      29.89S
$$

WIZ003>005-009-010-017-018-030300-
NORTH CENTRAL WISCONSIN

CITY           SKY/WX    TMP DP  RH WIND       PRES   REMARKS
WOODRUFF       PTCLDY    59  55  84 CALM      29.90R
RHINELANDER    CLEAR     56  52  86 CALM      29.91R
EAGLE RIVER    PTCLDY    56  50  81 CALM      29.89R
LAND O LAKES   PTCLDY    55  53  93 CALM      29.90R
PHILLIPS       CLEAR     61  55  79 SW3       29.89R
TOMAHAWK       CLEAR     55  53  93 CALM      29.90S
MEDFORD        CLEAR     56  55  97 S3        29.90S
MERRILL        CLEAR     58  56  91 CALM      29.89S
$$

WIZ029-030-035-036-043>047-030300-
CENTRAL WISCONSIN

CITY           SKY/WX    TMP DP  RH WIND       PRES   REMARKS
WAUSAU         CLEAR     63  57  81 CALM      29.88S
MOSINEE        CLEAR     61  57  88 SW3       29.91R
MARSHFIELD     CLEAR     63  57  81 SW5       29.90R
STEVENS POINT  CLEAR     59  58  94 CALM      29.90S
WAUPACA        CLEAR     64  61  90 CALM      29.90R
WAUTOMA        NOT AVBL
WISC RAPIDS    CLEAR     61  59  93 CALM      29.91R
CAMP DOUGLAS   NOT AVBL
$$

WIZ011>013-019>022-031-037>040-048>050-030300-
NORTHEAST WISCONSIN

CITY           SKY/WX    TMP DP  RH WIND       PRES   REMARKS
ANTIGO         CLEAR     57  54  88 SW3       29.90S
STURGEON BAY   CLEAR     63  59  88 SW5       29.88R
GREEN BAY      CLEAR     61  59  93 CALM      29.88R
MANITOWOC      NOT AVBL
APPLETON       PTCLDY    64  55  72 W6        29.90R
CLINTONVILLE   CLEAR     63  59  88 CALM      29.88R
OSHKOSH        CLEAR     66  57  72 CALM      29.89R
$$

WIZ032>034-041-042-053>061-030300-
SOUTHWEST WISCONSIN

CITY           SKY/WX    TMP DP  RH WIND       PRES   REMARKS
LA CROSSE      CLEAR     69  59  70 W5        29.89R
SPARTA         CLEAR     64  61  90 CALM      29.91R
VIROQUA        FAIR      64  60  87 SW5       29.92S
BOSCOBEL       CLEAR     64  61  90 CALM      29.92R
PRAIRIE DU CHI CLEAR     65  60  83 E3        29.91R
PLATTEVILLE    FAIR      67  59  74 CALM      29.94R
$$

WIZ056-057-062-063-064-067-068-030300-
SOUTH CENTRAL WISCONSIN

CITY           SKY/WX    TMP DP  RH WIND       PRES   REMARKS
BARABOO/DELLS  NOT AVBL
LONE ROCK      NOT AVBL
WATERTOWN      CLEAR     63  60  89 CALM      29.91R
MADISON        CLEAR     66  58  75 CALM      29.92R
MIDDLETON      FAIR      63  59  86 CALM      29.93R
MONROE         CLEAR     70  59  68 W6        29.94R
JANESVILLE     CLEAR     68  61  77 CALM      29.92R
$$

WIZ051-052-058>065-066-070>072-030300-
SOUTHEAST WISCONSIN

CITY           SKY/WX    TMP DP  RH WIND       PRES   REMARKS
MILWAUKEE      PTCLDY    69  57  65 CALM      29.92R
WAUKESHA       CLEAR     63  55  77 SW3       29.93R
MILWAUKEE/TIMM CLEAR     66  57  72 CALM      29.92R
RACINE         CLEAR     69  59  70 W5        29.94R
BURLINGTON     CLEAR     61  60  95 CALM      29.93R
KENOSHA        CLEAR     63  60  90 CALM      29.93R
FOND DU LAC    CLEAR     63  58  83 SW3       29.91R
SHEBOYGAN      CLEAR     63  60  90 S3        29.90R
WEST BEND      CLEAR     63  57  82 CALM      29.91R
JUNEAU         CLEAR     66  60  81 CALM      29.92R
$$

LSZ147-162-030300-
LAKE SUPERIOR

STATION/POSITION TIME  TEMP    WIND        PRES    WAVE
                       AIR SEA DIR/SP/G            HT/PER
                 (UTC) (F)     (DEG/KT/KT) (MB)    (FT/S)
W MID LAKE BUOY  0050   62 57  230/ 19/ 23 1008.9R   3/ 4
DEVILS ISLAND    0100   62     220/  8/ 10 1009.3F
PORT WING        0100   59     140/  3/  5 1010.2F
SAXON HARBOR     0120   60     110/  2/  5 1011.5S
$$

LMZ867-665-643>646-030300-
LAKE MICHIGAN

STATION/POSITION TIME  TEMP    WIND        PRES    WAVE
                       AIR SEA DIR/SP/G            HT/PER
                 (UTC) (F)     (DEG/KT/KT) (MB)    (FT/S)
N MID LAKE BUOY  0050   66 65  220/ 12/ 14 1010.6R   2/ 3
NORTHPORT PIER   0100   65     180/  3/  5 1010.5R
SISTER BAY       2341   73     220/  9/ 10   N/A
KEWAUNEE LAKESHO 0100   67     300/  2/  2 1010.6R
SHEBOYGAN LAKESH 0100   67 50  200/  6/  6 1012.2R
ATWATER BUOY     0100   69     230/  2/  2 1013.7R
MILWAUKEE LAKESH 0100   69      40/  2/  2   N/A
S MID LAKE BUOY  0050   72 72  140/  6/  6 1012.3R   0
KENOSHA   LAKESH 0100   74     300/  4/  4 1012.2R
$$

TC  - TEMPERATURE IN CELSIUS
VSB - VISIBILITY IN STATUTE MILES
WCI - WIND CHILL INDEX
HX  - HEAT INDEX



USA.gov is the U.S. government's official web portal to all federal, state and local government web resources and services.